Theta_e
328 329 330 335 339 342 344 345 340 339 336 339 338 339 339 339 339 338 336 335 335 334 333 330 321 321 322 320 317 313 315 318
327 328 329 333 338 344 345 346 344 342 340 341 339 340 340 339 339 337 335 335 334 331 328 318 317 318 319 317 310 311 311 314
328 328 330 332 338 343 345 347 345 342 342 341 341 341 339 339 337 335 334 333 331 320 319 317 319 318 314 310 305 305 309 310
327 328 328 333 337 342 346 347 346 342 342 341 341 340 338 336 334 333 331 330 321 312 312 308 311 313 312 308 305 305 304 307
327 327 328 334 338 340 346 347 345 344 342 341 341 339 335 333 331 330 328 323 311 308 306 307 307 309 306 307 307 304 304 305
327 327 328 334 337 340 344 346 344 344 342 340 339 337 333 330 328 325 322 314 309 306 306 306 305 307 306 303 303 303 302 306
327 328 327 334 338 341 344 346 345 344 342 339 338 337 331 328 324 320 318 313 308 307 307 306 306 304 304 304 302 301 304 303
328 328 328 331 339 340 342 346 345 344 341 340 338 336 332 325 321 319 316 312 311 309 307 306 305 307 303 300 300 300 301 305
326 329 328 329 336 339 342 343 343 342 341 341 337 334 328 323 321 319 314 313 312 311 307 306 303 301 299 299 299 300 304 305
325 328 328 329 336 340 343 343 341 341 341 339 335 330 326 323 320 316 315 313 313 312 306 301 300 300 299 298 299 300 302 303
325 325 329 330 337 340 341 341 340 339 340 337 333 328 325 323 316 315 313 312 312 309 301 300 299 298 298 299 299 299 299 302
325 326 330 331 338 339 340 339 337 336 335 334 333 326 321 315 315 313 311 310 306 302 300 299 298 297 298 298 298 298 301 302
327 328 330 334 338 338 338 337 336 334 333 332 329 320 314 314 314 312 309 303 301 300 299 298 297 297 298 298 298 298 299 300
326 330 331 336 335 335 333 332 330 329 327 326 318 313 314 313 311 308 305 301 299 299 298 297 297 298 298 298 297 298 298 298
328 330 331 334 334 332 329 325 323 319 317 315 315 313 313 310 307 305 302 300 299 299 297 297 298 298 298 297 297 297 296 296
328 330 331 332 333 330 327 322 319 315 314 312 312 311 309 307 306 303 299 299 299 297 297 298 298 297 297 297 297 296 296 296
328 330 330 332 331 327 323 319 316 313 311 310 310 308 307 307 304 300 299 299 298 297 297 298 298 297 297 297 296 296 296 295
328 329 328 330 329 326 322 316 313 311 309 308 308 307 307 306 300 299 299 299 297 297 298 297 297 298 298 297 296 295 292 292
326 327 327 328 327 325 323 316 312 310 308 308 307 307 306 301 298 300 299 298 297 298 300 298 299 297 296 296 292 291 292 291
Wind_Speed
30 29 28 29 34 34 31 28 27 24 26 20 21 22 26 27 26 22 20 16 14 12 12 7 9 7 8 10 8 6 6 9
26 32 32 26 30 35 33 30 26 25 28 31 30 30 29 26 21 20 17 15 15 14 11 10 11 12 13 9 6 4 3 13
24 22 28 33 29 35 37 32 30 29 34 33 34 31 27 25 24 20 18 18 16 17 13 11 10 7 8 7 6 5 1 8
28 27 26 33 37 30 37 35 34 35 35 34 30 27 24 22 22 22 21 19 18 18 17 15 12 10 9 5 7 7 7 6
29 26 33 38 37 34 33 35 36 40 37 36 37 35 33 31 27 24 23 21 21 18 16 13 11 10 7 4 8 9 8 8
35 32 30 41 43 44 38 35 41 43 40 40 39 39 32 30 25 24 23 23 21 17 15 12 10 7 7 6 8 9 9 8
32 30 29 39 44 42 36 38 43 45 38 43 41 38 34 32 29 29 26 24 20 18 14 11 9 7 7 7 8 9 9 11
33 29 28 28 45 41 41 44 41 37 39 45 43 37 34 33 34 31 28 24 22 20 16 12 7 8 8 9 10 10 9 8
26 30 28 22 41 42 43 43 40 43 45 44 39 37 36 38 34 29 26 24 21 18 15 12 11 9 9 9 9 8 7 10
29 26 27 22 37 43 47 43 38 41 47 45 43 39 41 38 29 27 26 24 23 21 16 12 10 8 8 9 8 8 9 11
28 27 30 26 35 45 46 43 40 40 46 46 44 42 41 35 33 34 31 29 27 21 16 12 9 8 8 9 8 8 10 13
28 26 25 25 38 44 42 41 41 45 43 44 41 42 37 37 37 36 36 31 23 17 14 10 8 8 8 8 8 7 8 10
24 22 24 25 38 38 38 40 42 44 49 41 45 42 42 42 38 36 30 27 21 17 13 10 8 7 7 7 7 7 9 8
19 22 25 31 33 33 34 36 34 38 45 48 49 47 46 41 39 33 28 24 19 15 12 9 8 7 7 6 7 7 8 8
16 19 26 30 33 31 31 29 30 38 44 48 52 50 44 40 36 32 30 22 18 14 11 9 8 6 7 7 8 7 9 11
22 26 27 30 33 34 33 33 40 41 43 48 53 47 41 39 36 32 26 22 17 13 11 9 7 7 9 7 7 9 11 14
28 30 31 33 34 35 37 38 44 42 42 44 47 42 42 39 35 30 25 21 16 13 10 8 6 10 8 8 8 10 12 13
26 29 34 39 40 40 40 42 42 43 41 43 44 44 43 38 34 29 24 20 17 14 10 6 11 10 9 7 8 8 9 12
35 33 35 38 41 41 41 43 45 44 42 42 46 45 40 37 33 28 25 19 15 8 6 13 13 10 8 6 4 6 9 12
Wind_Direction
227 222 234 215 205 199 214 222 219 209 197 200 179 197 201 209 215 217 208 209 201 185 196 201 173 186 222 251 261 274 306 297
246 226 219 220 203 193 203 213 214 207 189 193 190 199 204 210 204 212 202 208 205 199 212 202 182 207 227 254 271 283 308 281
245 253 216 212 202 193 199 203 209 206 200 199 198 203 200 202 208 198 201 205 203 176 197 193 175 233 244 273 308 310 250 285
242 227 230 215 203 197 198 201 207 210 198 205 197 204 195 193 200 193 200 202 194 196 198 211 191 202 247 275 299 306 313 328
243 245 215 207 207 200 199 198 213 216 199 203 194 194 187 194 201 197 198 197 197 202 208 209 192 202 222 244 279 302 309 315
244 240 234 210 209 202 207 203 214 217 204 204 197 193 188 194 197 193 195 194 197 200 202 194 183 210 252 261 280 301 307 292
240 244 242 207 202 200 200 205 213 216 206 207 204 200 189 194 189 192 195 195 192 194 193 193 204 220 243 277 288 300 292 292
228 223 238 221 196 197 199 204 207 212 217 208 213 203 194 192 193 196 193 192 191 193 192 198 207 235 262 282 291 297 302 305
234 231 225 227 201 195 201 208 215 214 208 206 206 193 189 189 198 196 191 192 196 195 190 200 217 242 268 283 294 297 289 287
226 236 217 218 203 191 196 199 202 211 209 198 195 187 192 194 194 185 184 186 192 202 202 210 228 250 272 282 291 293 294 301
232 241 213 205 194 197 200 203 204 208 194 199 198 193 196 198 179 181 183 188 198 201 205 208 224 248 265 281 292 290 286 283
231 242 195 188 191 198 199 202 208 203 208 201 204 197 190 185 183 189 192 197 196 198 200 208 226 250 266 281 289 291 286 282
226 223 184 190 193 194 202 206 210 215 216 211 205 188 184 188 190 196 193 189 190 193 199 213 230 248 264 273 276 274 275 281
227 191 181 184 191 197 206 210 213 214 203 201 188 186 189 191 189 190 189 187 188 192 204 215 224 236 250 269 270 274 278 286
216 196 190 187 189 186 197 196 201 197 189 186 187 189 190 189 188 189 187 185 185 193 202 210 216 223 250 253 260 281 291 306
215 200 194 192 188 195 201 203 190 186 189 186 188 186 186 187 188 185 182 184 184 191 197 202 201 230 251 264 272 294 307 310
208 199 195 194 189 191 191 199 195 190 187 184 185 181 185 188 185 181 179 181 181 184 188 198 202 251 253 269 286 298 305 315
216 201 198 197 194 192 188 185 184 187 183 186 186 185 190 189 183 179 179 177 175 174 180 196 234 239 255 272 295 307 319 332
210 205 203 201 199 191 187 186 184 183 181 183 189 189 190 183 179 176 174 169 167 154 233 221 215 236 252 266 280 312 339 340